sat.trackr.live / text

‹ back to catalog

STARLINK-36435

NORAD 67568 · 2026-016H

PAYLOAD ACTIVE UNKNOWN

§ Identity

Operator
Country
US
Launch date
2026-01-25
Launch site
AFWTR
Launch vehicle
Mass (kg)
RCS (m²)

Purposes: comms

External: N2YO · Heavens-Above · Gunter

§ Orbital elements

Epoch: 2026-09-19T21:54:58.819392Z

Period
93.91 min
Inclination
97.2855°
Eccentricity
0.0000730
Mean motion
15.33453800 rev/d
Perigee alt
465.0 km
Apogee alt
466.0 km
Semi-major
6,843.7 km
B*
3.1777e-4
RAAN
321.6330°
Arg perigee
100.2626°
Mean anomaly
259.8699°
Rev number
3,663

§ Raw data

STARLINK-364351 67568U 26016H   26262.91318078  .00010200  00000+0  31777-3 0  99922 67568  97.2855 321.6330 0000730 100.2626 259.8699 15.33453800 36633

JSON: /api/v1/satellites/67568 · /tle

For live sub-satellite position, see the globe view (requires WebGL).

§ Visibility from observer

Set your observer location to see the next 7 days of passes ≥ 10°. The values pass through the URL so the page stays shareable.

No JS? Fill the form by hand. The geolocation button needs JavaScript.